Regional Weather Roundup
Issued by NWS

Home | Current Version | Previous Version | Text Only | Print | Product List | Glossary Off
Versions: 1 2 3 4 5 6 7 8 9 10 11 12 13 14 15 16 17 18 19 20 21 22 23 24 25 26 27 28 29 30 31 32 33 34 35 36 37 38 39 40 41 42 43 44 45 46 47 48 49 50

000
ASUS44 KMEG 250510
RWRTN
TENNESSEE HOURLY STATE WEATHER ROUNDUP
NATIONAL WEATHER SERVICE MEMPHIS TN
1200 AM CDT TUE APR 25 2017

TNZ002-004-019-021-049-052-054-088>092-250600-
WEST TENNESSEE

CITY           SKY/WX    TMP DP  RH WIND       PRES   REMARKS
MEMPHIS INTL   PTCLDY    61  56  83 SE8       29.77S
NWS MEMPHIS      N/A     58 N/A N/A MISG        N/A
JACKSON        CLEAR     56  54  93 S3        29.78F
DYERSBURG      CLEAR     60  56  86 S5        29.77F
SOMERVILLE     CLEAR     57  55  94 VRB5      29.76F
UNION CITY     CLEAR     59  55  88 SE7       29.76S
BOLIVAR        CLEAR     54  52  94 CALM      29.78F
PARIS          CLEAR     54  54 100 S3        29.77F
HUNTINGDON     PTCLDY    57  55  94 CALM      29.77S
LEXINGTON      CLEAR     52  52 100 CALM      29.78S FOG
SAVANNAH       CLEAR     50  50 100 CALM      29.78S FOG
$$

TNZ008-025-027-028-033-062-065-066-250600-
NORTH MIDDLE TENNESSEE

CITY           SKY/WX    TMP DP  RH WIND       PRES   REMARKS
NASHVILLE      CLEAR     56  54  93 W3        29.78R
PORTLAND       CLEAR     54  54 100 CALM      29.76S
CLARKSVILLE    CLEAR     57  53  86 SW5       29.77S
SMYRNA         CLEAR     54  53  97 CALM      29.78S FOG
COOKEVILLE     CLOUDY    55  55 100 CALM      29.75F
GALLATIN       CLEAR     54  54 100 CALM      29.79S
CROSSVILLE     MOCLDY    55  53  93 CALM      29.78R
$$

TNZ061-075-076-078-094-096-097-250600-
SOUTH MIDDLE TENNESSEE

CITY           SKY/WX    TMP DP  RH WIND       PRES   REMARKS
FAYETTEVILLE     N/A     54  54 100 CALM      29.78S
TULLAHOMA      CLOUDY    48  48 100 CALM      29.79S VSB 1/4
WINCHESTER     MOCLDY    54  52  94 CALM      29.79S
MCMINNVILLE    CLOUDY    55  55 100 CALM      29.78S
COLUMBIA       CLEAR    N/A N/A N/A CALM      29.77S
SHELBYVILLE    CLOUDY    52  52 100 E3        29.79S VSB 1/4
$$

TNZ017-018-042-046-047-250600-
NORTHEAST TENNESSEE

CITY           SKY/WX    TMP DP  RH WIND       PRES   REMARKS
TRI CITIES     CLOUDY    54  50  86 NE5       29.75F
ELIZABETHTON     N/A     54  52  94 CALM      29.74F
$$

TNZ012-013-036-069-073-074-250600-
CENTRAL EAST TENNESSEE

CITY           SKY/WX    TMP DP  RH WIND       PRES   REMARKS
KNOXVILLE      PTCLDY    57  52  83 NE8       29.73S
OAK RIDGE      CLEAR     58  52  80 CALM      29.76S
DOWNTOWN KNOXV CLEAR     55  55 100 CALM      29.74F
GATLINBURG     PTCLDY    54  52  94 E6        29.73F
MORRISTOWN     CLEAR     57  52  82 E6        29.74F
JACKSBORO      CLOUDY    57  57 100 CALM      29.78F
$$

TNZ083-085-099-250600-
SOUTHEAST TENNESSEE

CITY           SKY/WX    TMP DP  RH WIND       PRES   REMARKS
CHATTANOOGA    MOCLDY    59  56  89 CALM      29.75R
$$

SKY/WX REPORTED AS FAIR MEANS FEW OR NO CLOUDS BELOW
12 THOUSAND FEET.





USA.gov is the U.S. government's official web portal to all federal, state and local government web resources and services.